Weather WX

World > North America > United States > New Jersey

Zarephath, New Jersey Regional Weather

Lat: 40.54N, Lon: 74.58W
Wx Zone: NJZ010
Warning FLW WEATHER ALERT - FLASH FLOOD WATCH (More Info. Click Here) Warning
Feedback

Zarephath, NJ Regional Weather

Expires:201907171500;;783977
ASUS41 KOKX 171414
RWROKX

Regional Weather Roundup
National Weather Service New York NY
1000 AM EDT WED JUL 17 2019

Note: "FAIR" indicates few or no clouds below 12,000 feet with no
significant weather and/or obstructions to visibility.


NJZ001-105-106-008-010-013-015-019>022-104-171500-
New Jersey
  
CITY           SKY/WX    TMP DP  RH WIND       PRES   REMARKS
Newark/Liberty PTSUNNY   88  75  65 VRB6      29.96F HX  97           
Teterboro      FAIR      87  73  62 SW7       29.95F HX  94           
Caldwell       FAIR      87  74  64 W6        29.97F HX  95           
Somerville     FAIR      86  75  69 CALM      29.95F HX  95           
Linden         FAIR      87  74  65 W7        29.97F HX  95           
Perth Amboy      N/A     84 N/A N/A W8          N/A                   
Sussex         PTSUNNY   82  70  66 VRB5      29.98F                  
Andover          N/A     84  73  69 VRB5      30.00R HX  90           
Trenton        FAIR      85  77  77 S7        29.98S HX  95           
Millville      FAIR      86  77  74 W5        29.99F HX  97           
Atlantic City  FAIR      87  75  67 W7        29.99F HX  96           
Wrightstown    FAIR      86  75  68 SW7       29.97  HX  95           
Toms River     FAIR      89  78  70 SW7       29.99F HX 103           
Belmar         FAIR      86  75  69 SW7       29.99F HX  95           
$$
 

SKY/WX - Weather  TMP - Temperature  DP - Dew Point  RH - Relative Humidity
WIND - Wind Direction/Speed PRES - Barometric Pressure VSB - Visibility
WCI - Wind Chill Index E13G22 Wind - East Wind 13 mph/Gusts of 22 mph